Regional Weather Roundup
Issued by NWS Goodland, KS

Home | Current Version | Previous Version | Text Only | Print | Product List | Glossary Off
Versions: 1 2 3 4 5 6 7 8 9 10 11 12 13 14 15 16 17 18 19 20 21 22 23 24 25 26 27 28 29 30 31 32 33 34 35 36 37 38 39 40 41 42 43 44 45 46 47 48 49 50

000
ASUS43 KGLD 101159
RWRGLD

GOODLAND FORECAST AREA HOURLY WEATHER ROUNDUP
NATIONAL WEATHER SERVICE GOODLAND KS
500 AM MST WED FEB 10 2016

...OFFICIAL OBSERVATIONS...

CITY           SKY/WX    TMP DP  RH WIND       PRES   REMARKS
GOODLAND KS    CLOUDY    35  21  56 W15       30.09F
HILL CITY KS   CLEAR     33  25  72 SW8       30.04F
IMPERIAL NEB   CLOUDY    36  23  59 W17       30.03F
MCCOOK NEB     CLOUDY    28  23  81 W12       30.03F WCI  18
AKRON CO       CLOUDY    34  19  54 W16       30.10S
BURLINGTON CO  CLOUDY    31  19  61 W10       30.11F
LIMON CO       CLOUDY    29  15  56 NW13      30.17R WCI  19
$$

...UNOFFICIAL OBSERVATIONS...

CITY           SKY/WX    TMP DP  RH WIND       PRES   REMARKS
COLBY KS       CLEAR     34  28  80 W14       30.07S
GOVE KS          N/A     32  32 100 MISG        N/A
LENORA KS        N/A     36  32  85 MISG        N/A
NORTON KS      CLEAR     30  21  69 W10       30.01S
SHARON SPRINGS   N/A     35  27  74 SW12        N/A
KIT CARSON CO    N/A     27  20  73 MISG        N/A
YUMA CO          N/A     28  21  75 NW8         N/A
$$



USA.gov is the U.S. government's official web portal to all federal, state and local government web resources and services.